Tracking 25711 objects as of 22-May-2022
HD Live streaming from Space Station
objects crossing your sky now

PSLV R/B

Track PSLV R/B now!
10-day predictions


NORAD ID: 43287
Int'l Code: 2018-035B
Perigee: 244.0 km
Apogee: 19,735.2 km
Inclination: 19.2 °
Period: 347.1 minutes
Semi major axis: 16360 km
RCS: Unknown
Launch date: April 11, 2018
Source: India (IND)
Launch site: SRIHARIKOTA (SRI)

Note: This is a ROCKET BODY
aabbcc
Your satellite tracking list
Your tracking list is empty




NASA's NSSDC Master Catalog

Two Line Element Set (TLE):
1 43287U 18035B   22141.25757862  .00016407  00000-0  13221-2 0  9992
2 43287  19.2175 357.0608 5956731 229.2287  61.3822  4.14861699 60318
Source of the keplerian elements: AFSPC